{"data":{"norad_id":61718,"epoch":"2026-09-21T08:28:36.879168Z","epoch_age_seconds":115090,"freshness":"FRESH","line1":"1 61718U 24196M   26264.35320462  .00001186  00000+0  46263-4 0  9990","line2":"2 61718  53.1582 255.4255 0001357  92.3732 267.7426 15.34383111107359","mean_motion":15.34383111,"eccentricity":0.0001357,"inclination_deg":53.1582,"raan_deg":255.4255,"arg_perigee_deg":92.3732,"mean_anomaly_deg":267.7426,"bstar":4.6263e-5,"rev_number":10735,"period_min":93.848791066366,"perigee_km":461.82512950226,"apogee_km":463.68174716722,"semimajor_km":6840.8904383347,"source":"CELESTRAK","updated_at":"2026-09-22T09:00:49.411987Z"}}